QPF
0.00 0.00 0.00 0.00 0.00 0.00 0.00 0.00 0.00 0.00 0.00 0.00 0.00 0.00 0.00 0.00 0.00 0.01 0.01 0.01 0.01 0.01 0.01 0.01 0.01 0.01 0.02 0.02 0.02 0.02 0.03 0.04 0.03 0.02 0.02 0.03 0.04 0.06 0.06 0.05 0.04 0.03 0.02 0.01
0.00 0.00 0.00 0.00 0.00 0.00 0.00 0.00 0.00 0.00 0.00 0.00 0.00 0.00 0.00 0.00 0.00 0.00 0.01 0.01 0.01 0.01 0.00 0.01 0.01 0.01 0.02 0.02 0.02 0.03 0.03 0.03 0.04 0.03 0.03 0.03 0.04 0.06 0.05 0.04 0.04 0.03 0.02 0.02
0.00 0.00 0.00 0.00 0.00 0.00 0.00 0.00 0.00 0.00 0.00 0.00 0.00 0.00 0.00 0.00 0.00 0.00 0.01 0.01 0.01 0.01 0.00 0.00 0.01 0.01 0.02 0.01 0.01 0.02 0.02 0.04 0.05 0.04 0.03 0.02 0.03 0.04 0.02 0.04 0.05 0.03 0.02 0.02
0.00 0.00 0.00 0.00 0.00 0.00 0.00 0.00 0.00 0.00 0.00 0.00 0.00 0.00 0.00 0.00 0.00 0.00 0.00 0.00 0.01 0.01 0.00 0.00 0.01 0.01 0.01 0.01 0.01 0.01 0.02 0.04 0.04 0.04 0.03 0.02 0.03 0.02 0.01 0.02 0.02 0.02 0.02 0.02
0.00 0.00 0.00 0.00 0.00 0.00 0.00 0.00 0.00 0.00 0.00 0.00 0.00 0.00 0.00 0.00 0.00 0.00 0.00 0.01 0.00 0.00 0.00 0.01 0.01 0.01 0.00 0.01 0.01 0.01 0.02 0.03 0.04 0.05 0.05 0.04 0.03 0.02 0.02 0.02 0.02 0.02 0.02 0.02
0.00 0.00 0.00 0.00 0.00 0.00 0.00 0.00 0.00 0.00 0.00 0.00 0.00 0.00 0.01 0.01 0.00 0.00 0.00 0.01 0.00 0.00 0.00 0.01 0.01 0.01 0.01 0.01 0.01 0.01 0.02 0.03 0.05 0.06 0.05 0.04 0.04 0.04 0.03 0.02 0.01 0.02 0.01 0.01
0.00 0.00 0.00 0.00 0.00 0.00 0.00 0.00 0.00 0.00 0.00 0.00 0.00 0.00 0.01 0.01 0.02 0.02 0.02 0.01 0.01 0.01 0.01 0.01 0.01 0.01 0.01 0.01 0.01 0.01 0.04 0.05 0.06 0.06 0.05 0.04 0.04 0.05 0.05 0.04 0.03 0.02 0.02 0.02
0.00 0.00 0.00 0.00 0.00 0.00 0.00 0.00 0.00 0.01 0.01 0.01 0.01 0.01 0.01 0.02 0.02 0.03 0.03 0.02 0.02 0.02 0.01 0.01 0.02 0.02 0.01 0.02 0.01 0.01 0.03 0.06 0.06 0.05 0.05 0.05 0.04 0.05 0.06 0.06 0.05 0.05 0.05 0.04
0.00 0.00 0.00 0.00 0.00 0.00 0.00 0.00 0.00 0.01 0.01 0.01 0.01 0.02 0.02 0.02 0.03 0.04 0.05 0.04 0.04 0.04 0.03 0.03 0.02 0.02 0.03 0.02 0.02 0.02 0.02 0.03 0.04 0.04 0.04 0.05 0.04 0.03 0.04 0.05 0.06 0.07 0.08 0.07
0.00 0.00 0.00 0.00 0.00 0.00 0.00 0.01 0.01 0.01 0.01 0.01 0.02 0.02 0.02 0.03 0.04 0.05 0.06 0.06 0.06 0.06 0.06 0.05 0.04 0.04 0.04 0.03 0.02 0.02 0.03 0.03 0.04 0.04 0.04 0.04 0.04 0.04 0.04 0.04 0.04 0.04 0.05 0.04
0.01 0.00 0.00 0.00 0.00 0.00 0.01 0.01 0.01 0.02 0.02 0.01 0.02 0.02 0.03 0.04 0.05 0.06 0.07 0.08 0.08 0.08 0.06 0.05 0.05 0.06 0.06 0.05 0.05 0.05 0.06 0.07 0.06 0.07 0.06 0.06 0.06 0.06 0.05 0.05 0.05 0.04 0.04 0.04
0.01 0.01 0.01 0.01 0.01 0.01 0.01 0.03 0.03 0.02 0.02 0.02 0.02 0.02 0.03 0.04 0.05 0.06 0.07 0.07 0.08 0.07 0.08 0.09 0.09 0.09 0.09 0.09 0.10 0.10 0.09 0.09 0.09 0.08 0.08 0.07 0.05 0.05 0.07 0.08 0.07 0.05 0.04 0.03
0.01 0.01 0.01 0.01 0.01 0.01 0.01 0.02 0.04 0.04 0.03 0.03 0.03 0.04 0.04 0.04 0.03 0.04 0.04 0.05 0.05 0.06 0.06 0.07 0.09 0.09 0.10 0.10 0.09 0.09 0.10 0.09 0.07 0.05 0.04 0.04 0.04 0.03 0.03 0.04 0.04 0.03 0.03 0.03
0.02 0.02 0.02 0.02 0.02 0.02 0.02 0.02 0.03 0.04 0.05 0.04 0.03 0.04 0.04 0.03 0.02 0.03 0.04 0.04 0.04 0.04 0.03 0.03 0.03 0.03 0.04 0.05 0.05 0.05 0.07 0.07 0.07 0.05 0.02 0.02 0.02 0.03 0.03 0.03 0.03 0.03 0.03 0.03
0.02 0.03 0.02 0.02 0.02 0.01 0.01 0.02 0.02 0.03 0.04 0.04 0.03 0.03 0.03 0.02 0.02 0.02 0.03 0.05 0.04 0.03 0.02 0.03 0.03 0.03 0.04 0.04 0.04 0.05 0.06 0.06 0.05 0.04 0.03 0.03 0.02 0.02 0.02 0.02 0.02 0.02 0.02 0.02
0.02 0.02 0.02 0.02 0.01 0.01 0.00 0.01 0.01 0.01 0.02 0.03 0.03 0.03 0.03 0.02 0.02 0.02 0.02 0.03 0.03 0.03 0.03 0.03 0.02 0.03 0.05 0.05 0.04 0.05 0.06 0.08 0.07 0.05 0.04 0.03 0.03 0.02 0.02 0.02 0.01 0.01 0.01 0.01
0.05 0.03 0.02 0.02 0.01 0.01 0.00 0.00 0.01 0.01 0.02 0.03 0.03 0.03 0.03 0.03 0.03 0.02 0.03 0.02 0.02 0.03 0.03 0.03 0.02 0.02 0.03 0.04 0.04 0.04 0.05 0.05 0.06 0.05 0.04 0.03 0.03 0.03 0.02 0.02 0.02 0.01 0.01 0.01
0.04 0.03 0.02 0.02 0.01 0.01 0.01 0.01 0.01 0.02 0.03 0.03 0.03 0.02 0.02 0.02 0.02 0.02 0.03 0.03 0.03 0.04 0.04 0.04 0.03 0.03 0.03 0.03 0.04 0.04 0.03 0.03 0.03 0.04 0.04 0.04 0.02 0.02 0.02 0.03 0.03 0.02 0.02 0.02
0.02 0.02 0.02 0.01 0.01 0.02 0.02 0.03 0.03 0.03 0.03 0.03 0.03 0.03 0.02 0.02 0.02 0.01 0.02 0.02 0.03 0.04 0.04 0.04 0.04 0.04 0.04 0.04 0.05 0.05 0.04 0.03 0.03 0.04 0.04 0.04 0.04 0.03 0.03 0.03 0.03 0.04 0.04 0.04
0.03 0.02 0.02 0.02 0.02 0.03 0.04 0.05 0.04 0.04 0.04 0.03 0.03 0.02 0.02 0.02 0.02 0.02 0.02 0.02 0.02 0.03 0.04 0.05 0.05 0.04 0.04 0.04 0.05 0.04 0.04 0.04 0.04 0.04 0.04 0.04 0.05 0.06 0.05 0.05 0.04 0.04 0.04 0.04
0.04 0.04 0.03 0.03 0.03 0.04 0.04 0.06 0.04 0.03 0.03 0.03 0.03 0.02 0.02 0.02 0.02 0.02 0.02 0.03 0.04 0.04 0.05 0.06 0.06 0.06 0.05 0.05 0.05 0.04 0.03 0.04 0.05 0.05 0.05 0.06 0.06 0.06 0.06 0.05 0.05 0.06 0.06 0.06
0.04 0.05 0.05 0.04 0.04 0.04 0.04 0.05 0.04 0.03 0.02 0.02 0.02 0.02 0.01 0.01 0.01 0.02 0.03 0.04 0.05 0.06 0.05 0.07 0.07 0.07 0.07 0.05 0.04 0.03 0.03 0.03 0.04 0.04 0.05 0.06 0.06 0.06 0.05 0.05 0.06 0.06 0.07 0.07
0.04 0.04 0.04 0.05 0.05 0.04 0.03 0.04 0.04 0.02 0.03 0.02 0.02 0.01 0.01 0.01 0.01 0.03 0.05 0.07 0.08 0.07 0.05 0.07 0.06 0.05 0.05 0.04 0.03 0.04 0.04 0.04 0.04 0.04 0.04 0.05 0.05 0.05 0.07 0.08 0.08 0.07 0.06 0.06
0.04 0.04 0.04 0.03 0.03 0.03 0.03 0.04 0.04 0.03 0.03 0.03 0.03 0.03 0.02 0.02 0.04 0.06 0.08 0.08 0.09 0.08 0.06 0.07 0.06 0.03 0.03 0.03 0.03 0.04 0.04 0.04 0.05 0.05 0.04 0.04 0.04 0.05 0.05 0.06 0.06 0.04 0.04 0.04
0.04 0.04 0.03 0.03 0.04 0.04 0.04 0.03 0.03 0.03 0.03 0.03 0.03 0.04 0.05 0.07 0.08 0.10 0.08 0.06 0.07 0.06 0.06 0.05 0.03 0.03 0.03 0.02 0.03 0.03 0.05 0.05 0.06 0.06 0.06 0.06 0.06 0.05 0.05 0.05 0.04 0.03 0.03 0.03
0.03 0.03 0.03 0.03 0.04 0.03 0.03 0.03 0.02 0.03 0.03 0.04 0.05 0.08 0.11 0.12 0.10 0.08 0.07 0.06 0.05 0.05 0.04 0.04 0.03 0.03 0.02 0.03 0.03 0.04 0.05 0.06 0.07 0.07 0.07 0.08 0.07 0.06 0.05 0.03 0.02 0.02 0.02 0.02
0.02 0.03 0.04 0.04 0.05 0.05 0.04 0.04 0.04 0.04 0.04 0.04 0.07 0.10 0.10 0.07 0.05 0.04 0.04 0.05 0.05 0.04 0.04 0.03 0.03 0.02 0.02 0.03 0.03 0.03 0.04 0.04 0.04 0.05 0.06 0.06 0.06 0.04 0.03 0.02 0.02 0.02 0.03 0.03
MSLP
1019.68 1019.56 1019.45 1019.32 1019.13 1018.82 1018.35 1017.69 1016.85 1015.84 1014.73 1013.58 1012.49 1011.52 1010.71 1010.09 1009.62 1009.28 1009.01 1008.73 1008.41 1008.03 1007.59 1007.13 1006.71 1006.39 1006.21 1006.23 1006.46 1006.88 1007.46 1008.13 1008.85 1009.55 1010.21 1010.80 1011.32 1011.78 1012.20 1012.60 1013.00 1013.41 1013.84 1014.27
1020.32 1020.08 1019.78 1019.40 1018.94 1018.35 1017.65 1016.82 1015.91 1014.94 1013.97 1013.06 1012.25 1011.58 1011.06 1010.68 1010.38 1010.11 1009.81 1009.44 1008.96 1008.37 1007.70 1007.01 1006.37 1005.84 1005.50 1005.40 1005.53 1005.90 1006.45 1007.13 1007.89 1008.67 1009.42 1010.12 1010.75 1011.32 1011.84 1012.32 1012.77 1013.22 1013.66 1014.09
1020.80 1020.41 1019.90 1019.28 1018.55 1017.72 1016.81 1015.87 1014.91 1014.00 1013.18 1012.49 1011.94 1011.55 1011.29 1011.10 1010.94 1010.72 1010.41 1009.94 1009.30 1008.52 1007.64 1006.74 1005.89 1005.18 1004.68 1004.44 1004.48 1004.78 1005.30 1005.99 1006.79 1007.64 1008.49 1009.31 1010.07 1010.77 1011.40 1011.98 1012.52 1013.01 1013.48 1013.91
1021.08 1020.50 1019.78 1018.93 1017.98 1016.96 1015.92 1014.89 1013.94 1013.10 1012.43 1011.93 1011.61 1011.44 1011.37 1011.33 1011.26 1011.08 1010.72 1010.17 1009.40 1008.46 1007.41 1006.33 1005.31 1004.44 1003.80 1003.44 1003.38 1003.61 1004.10 1004.79 1005.62 1006.54 1007.49 1008.42 1009.32 1010.15 1010.91 1011.61 1012.23 1012.79 1013.29 1013.74
1021.07 1020.31 1019.40 1018.37 1017.26 1016.12 1015.01 1013.97 1013.05 1012.31 1011.77 1011.43 1011.28 1011.27 1011.33 1011.39 1011.36 1011.18 1010.79 1010.15 1009.28 1008.22 1007.05 1005.84 1004.70 1003.71 1002.96 1002.51 1002.36 1002.53 1002.98 1003.66 1004.51 1005.48 1006.51 1007.56 1008.58 1009.54 1010.43 1011.23 1011.95 1012.57 1013.11 1013.58
1020.73 1019.80 1018.75 1017.60 1016.41 1015.24 1014.12 1013.13 1012.30 1011.66 1011.24 1011.03 1011.00 1011.08 1011.21 1011.31 1011.29 1011.08 1010.64 1009.95 1009.01 1007.89 1006.64 1005.36 1004.15 1003.10 1002.28 1001.75 1001.55 1001.66 1002.07 1002.73 1003.59 1004.60 1005.69 1006.82 1007.93 1009.00 1009.99 1010.89 1011.68 1012.37 1012.95 1013.43
1020.02 1018.96 1017.82 1016.64 1015.46 1014.32 1013.29 1012.40 1011.68 1011.17 1010.86 1010.74 1010.78 1010.90 1011.05 1011.13 1011.09 1010.85 1010.37 1009.65 1008.69 1007.54 1006.28 1004.99 1003.77 1002.69 1001.84 1001.28 1001.03 1001.10 1001.46 1002.10 1002.95 1003.97 1005.09 1006.27 1007.45 1008.59 1009.65 1010.61 1011.46 1012.18 1012.78 1013.28
1018.94 1017.81 1016.66 1015.51 1014.41 1013.40 1012.51 1011.76 1011.19 1010.80 1010.59 1010.53 1010.59 1010.72 1010.84 1010.89 1010.81 1010.54 1010.04 1009.31 1008.36 1007.25 1006.03 1004.78 1003.59 1002.53 1001.69 1001.12 1000.84 1000.87 1001.20 1001.80 1002.63 1003.63 1004.76 1005.95 1007.16 1008.33 1009.42 1010.41 1011.28 1012.01 1012.62 1013.11
1017.56 1016.42 1015.31 1014.27 1013.32 1012.47 1011.76 1011.18 1010.76 1010.48 1010.35 1010.33 1010.40 1010.50 1010.58 1010.58 1010.46 1010.17 1009.68 1008.98 1008.08 1007.04 1005.90 1004.73 1003.61 1002.61 1001.80 1001.23 1000.94 1000.95 1001.24 1001.80 1002.59 1003.56 1004.67 1005.85 1007.04 1008.20 1009.29 1010.27 1011.12 1011.84 1012.43 1012.91
1015.97 1014.87 1013.86 1012.96 1012.18 1011.52 1010.99 1010.58 1010.29 1010.11 1010.04 1010.04 1010.09 1010.16 1010.20 1010.17 1010.02 1009.74 1009.28 1008.64 1007.83 1006.89 1005.86 1004.80 1003.77 1002.84 1002.08 1001.53 1001.24 1001.22 1001.48 1002.00 1002.75 1003.68 1004.74 1005.88 1007.04 1008.16 1009.21 1010.16 1010.97 1011.66 1012.21 1012.66
1014.29 1013.26 1012.38 1011.63 1011.01 1010.53 1010.15 1009.88 1009.69 1009.58 1009.54 1009.54 1009.58 1009.62 1009.63 1009.59 1009.46 1009.21 1008.81 1008.27 1007.57 1006.75 1005.85 1004.90 1003.97 1003.12 1002.40 1001.88 1001.60 1001.56 1001.79 1002.27 1002.98 1003.86 1004.88 1005.98 1007.09 1008.16 1009.16 1010.04 1010.80 1011.43 1011.94 1012.35
1012.63 1011.70 1010.92 1010.30 1009.82 1009.46 1009.19 1009.00 1008.87 1008.79 1008.75 1008.75 1008.77 1008.80 1008.82 1008.80 1008.71 1008.53 1008.24 1007.81 1007.24 1006.55 1005.77 1004.93 1004.09 1003.31 1002.64 1002.15 1001.86 1001.82 1002.04 1002.49 1003.16 1004.02 1005.00 1006.05 1007.11 1008.13 1009.07 1009.89 1010.59 1011.17 1011.62 1011.99
1011.10 1010.23 1009.54 1009.00 1008.59 1008.28 1008.05 1007.88 1007.76 1007.67 1007.62 1007.61 1007.64 1007.68 1007.74 1007.78 1007.77 1007.70 1007.52 1007.22 1006.79 1006.22 1005.55 1004.81 1004.05 1003.33 1002.70 1002.22 1001.95 1001.91 1002.12 1002.56 1003.22 1004.06 1005.01 1006.04 1007.06 1008.04 1008.92 1009.69 1010.33 1010.85 1011.26 1011.59
1009.72 1008.91 1008.25 1007.73 1007.33 1007.01 1006.75 1006.54 1006.38 1006.26 1006.18 1006.17 1006.21 1006.30 1006.42 1006.56 1006.67 1006.72 1006.67 1006.50 1006.19 1005.74 1005.17 1004.50 1003.80 1003.12 1002.52 1002.07 1001.81 1001.78 1002.00 1002.45 1003.12 1003.95 1004.91 1005.92 1006.92 1007.86 1008.70 1009.43 1010.02 1010.49 1010.86 1011.15
1008.52 1007.72 1007.06 1006.51 1006.04 1005.65 1005.31 1005.02 1004.79 1004.62 1004.52 1004.51 1004.58 1004.74 1004.96 1005.21 1005.45 1005.64 1005.72 1005.68 1005.47 1005.11 1004.61 1004.00 1003.34 1002.69 1002.11 1001.68 1001.45 1001.45 1001.70 1002.18 1002.87 1003.73 1004.69 1005.70 1006.69 1007.61 1008.43 1009.11 1009.67 1010.10 1010.44 1010.70
1007.47 1006.66 1005.96 1005.34 1004.78 1004.28 1003.82 1003.43 1003.11 1002.89 1002.77 1002.78 1002.91 1003.15 1003.48 1003.85 1004.21 1004.52 1004.73 1004.78 1004.66 1004.36 1003.91 1003.34 1002.70 1002.08 1001.53 1001.14 1000.94 1000.98 1001.27 1001.80 1002.53 1003.42 1004.41 1005.43 1006.41 1007.32 1008.11 1008.76 1009.29 1009.69 1010.00 1010.24
1006.54 1005.72 1004.96 1004.25 1003.59 1002.96 1002.40 1001.90 1001.51 1001.23 1001.11 1001.14 1001.34 1001.66 1002.09 1002.57 1003.05 1003.46 1003.74 1003.87 1003.79 1003.54 1003.11 1002.56 1001.96 1001.36 1000.85 1000.50 1000.36 1000.46 1000.81 1001.39 1002.17 1003.10 1004.12 1005.14 1006.12 1007.01 1007.78 1008.40 1008.90 1009.27 1009.56 1009.80
1005.70 1004.88 1004.08 1003.29 1002.53 1001.81 1001.14 1000.56 1000.11 999.81 999.69 999.76 1000.01 1000.41 1000.92 1001.48 1002.02 1002.49 1002.82 1002.97 1002.92 1002.68 1002.27 1001.74 1001.16 1000.60 1000.14 999.85 999.79 999.96 1000.39 1001.04 1001.87 1002.84 1003.87 1004.90 1005.87 1006.74 1007.47 1008.06 1008.53 1008.88 1009.16 1009.39
1004.96 1004.15 1003.33 1002.50 1001.68 1000.89 1000.16 999.54 999.05 998.75 998.64 998.73 999.02 999.47 1000.02 1000.61 1001.18 1001.66 1001.99 1002.13 1002.07 1001.82 1001.42 1000.91 1000.37 999.87 999.49 999.29 999.31 999.58 1000.09 1000.81 1001.70 1002.70 1003.74 1004.76 1005.70 1006.53 1007.23 1007.79 1008.22 1008.55 1008.82 1009.06
1004.31 1003.54 1002.74 1001.91 1001.07 1000.26 999.51 998.87 998.38 998.07 997.98 998.09 998.39 998.84 999.39 999.96 1000.50 1000.94 1001.24 1001.34 1001.26 1001.00 1000.60 1000.13 999.65 999.24 998.95 998.86 999.00 999.37 999.97 1000.76 1001.70 1002.72 1003.76 1004.75 1005.66 1006.45 1007.10 1007.62 1008.02 1008.34 1008.60 1008.85
1003.77 1003.07 1002.33 1001.53 1000.72 999.92 999.18 998.55 998.07 997.77 997.68 997.78 998.06 998.48 998.98 999.49 999.96 1000.33 1000.56 1000.61 1000.50 1000.23 999.86 999.45 999.06 998.75 998.59 998.63 998.90 999.38 1000.07 1000.93 1001.90 1002.93 1003.95 1004.92 1005.78 1006.52 1007.13 1007.61 1007.99 1008.29 1008.56 1008.82
1003.35 1002.75 1002.08 1001.35 1000.58 999.83 999.12 998.52 998.06 997.76 997.66 997.73 997.96 998.31 998.73 999.15 999.52 999.80 999.95 999.95 999.82 999.57 999.25 998.93 998.65 998.48 998.46 998.65 999.05 999.65 1000.42 1001.34 1002.33 1003.36 1004.36 1005.28 1006.09 1006.78 1007.35 1007.79 1008.15 1008.45 1008.73 1009.01
1003.07 1002.56 1001.98 1001.32 1000.62 999.92 999.26 998.69 998.24 997.95 997.81 997.84 998.00 998.26 998.58 998.90 999.17 999.36 999.44 999.41 999.28 999.07 998.84 998.63 998.49 998.47 998.62 998.96 999.48 1000.19 1001.04 1002.00 1003.00 1004.02 1004.98 1005.85 1006.61 1007.25 1007.77 1008.20 1008.55 1008.85 1009.14 1009.45
1002.89 1002.47 1001.97 1001.39 1000.75 1000.11 999.50 998.96 998.53 998.23 998.06 998.03 998.12 998.29 998.51 998.73 998.92 999.04 999.09 999.06 998.96 998.83 998.71 998.63 998.65 998.80 999.11 999.59 1000.23 1001.03 1001.93 1002.91 1003.91 1004.89 1005.80 1006.62 1007.33 1007.93 1008.42 1008.82 1009.16 1009.48 1009.78 1010.11
1002.78 1002.43 1002.00 1001.49 1000.92 1000.34 999.77 999.27 998.85 998.54 998.35 998.28 998.30 998.40 998.54 998.70 998.83 998.92 998.97 998.97 998.95 998.93 998.94 999.02 999.19 999.50 999.96 1000.56 1001.30 1002.15 1003.09 1004.06 1005.03 1005.96 1006.82 1007.58 1008.23 1008.78 1009.24 1009.63 1009.97 1010.29 1010.61 1010.95
1002.69 1002.41 1002.03 1001.58 1001.07 1000.54 1000.03 999.57 999.18 998.88 998.68 998.58 998.58 998.64 998.74 998.86 998.98 999.09 999.18 999.26 999.34 999.44 999.59 999.82 1000.15 1000.60 1001.17 1001.87 1002.67 1003.55 1004.47 1005.41 1006.33 1007.19 1007.97 1008.67 1009.26 1009.76 1010.19 1010.57 1010.90 1011.23 1011.55 1011.89
1002.60 1002.36 1002.03 1001.63 1001.19 1000.73 1000.28 999.87 999.53 999.27 999.09 999.01 999.00 999.07 999.17 999.31 999.47 999.63 999.79 999.97 1000.16 1000.40 1000.69 1001.06 1001.51 1002.07 1002.72 1003.46 1004.28 1005.14 1006.03 1006.90 1007.74 1008.51 1009.21 1009.82 1010.36 1010.81 1011.21 1011.56 1011.89 1012.20 1012.52 1012.84
Thickness
5751 5759 5761 5761 5760 5759 5757 5750 5745 5754 5758 5774 5782 5787 5792 5795 5796 5796 5796 5796 5794 5792 5791 5790 5788 5786 5784 5781 5778 5775 5770 5765 5762 5760 5758 5755 5753 5751 5748 5747 5745 5743 5742 5740
5743 5752 5753 5753 5756 5757 5757 5754 5754 5757 5760 5779 5784 5786 5788 5789 5790 5790 5791 5792 5792 5790 5789 5788 5786 5784 5782 5779 5776 5772 5768 5763 5760 5757 5754 5752 5750 5748 5746 5745 5743 5741 5740 5738
5720 5735 5742 5733 5748 5751 5752 5756 5755 5750 5762 5774 5775 5778 5781 5785 5786 5787 5788 5789 5788 5787 5787 5786 5784 5783 5779 5777 5774 5769 5765 5761 5758 5755 5752 5749 5747 5745 5743 5742 5740 5738 5737 5735
5704 5719 5711 5734 5755 5756 5752 5755 5758 5759 5763 5768 5772 5777 5781 5783 5782 5783 5785 5785 5784 5784 5783 5783 5782 5780 5777 5774 5769 5765 5761 5758 5756 5753 5749 5746 5744 5742 5741 5739 5737 5735 5733 5732
5689 5695 5708 5730 5746 5747 5742 5743 5754 5753 5757 5761 5766 5768 5771 5778 5779 5780 5782 5783 5782 5782 5782 5780 5778 5776 5773 5769 5765 5760 5757 5755 5753 5750 5746 5743 5740 5739 5737 5735 5733 5732 5730 5728
5682 5688 5690 5718 5742 5749 5741 5729 5748 5749 5749 5751 5753 5745 5755 5769 5772 5774 5776 5777 5777 5778 5776 5774 5773 5771 5767 5763 5760 5757 5755 5753 5750 5747 5744 5741 5738 5736 5734 5732 5730 5729 5727 5726
5676 5682 5695 5720 5733 5738 5715 5721 5740 5741 5742 5742 5741 5744 5753 5760 5762 5765 5766 5768 5770 5769 5768 5767 5766 5764 5760 5758 5756 5755 5752 5749 5746 5743 5740 5738 5734 5732 5730 5728 5726 5724 5722 5722
5666 5671 5686 5717 5720 5714 5715 5726 5730 5732 5734 5735 5737 5741 5745 5749 5751 5753 5755 5758 5760 5759 5759 5759 5759 5756 5754 5752 5752 5749 5746 5743 5740 5738 5736 5734 5730 5727 5725 5723 5720 5719 5717 5716
5675 5683 5698 5706 5709 5714 5716 5717 5721 5723 5727 5729 5729 5731 5734 5736 5739 5742 5744 5746 5748 5748 5748 5748 5749 5749 5745 5746 5745 5741 5738 5735 5733 5731 5730 5728 5725 5722 5719 5717 5715 5713 5712 5711
5671 5683 5692 5698 5703 5706 5710 5711 5715 5717 5719 5721 5720 5722 5723 5724 5726 5729 5732 5734 5736 5736 5736 5737 5739 5738 5738 5738 5737 5734 5731 5729 5726 5724 5722 5721 5719 5717 5715 5713 5711 5709 5707 5707
5663 5673 5681 5689 5693 5697 5700 5703 5705 5708 5711 5712 5712 5712 5713 5713 5715 5718 5720 5722 5724 5724 5725 5726 5728 5728 5729 5729 5729 5726 5723 5721 5719 5718 5714 5713 5712 5711 5710 5710 5709 5706 5705 5704
5656 5666 5667 5675 5683 5687 5688 5691 5694 5697 5699 5702 5703 5703 5704 5704 5706 5708 5710 5711 5712 5713 5715 5717 5718 5719 5721 5721 5721 5718 5715 5713 5712 5711 5709 5707 5705 5704 5705 5703 5702 5701 5700 5699
5657 5663 5665 5671 5675 5678 5679 5682 5685 5687 5689 5690 5693 5695 5695 5695 5696 5696 5699 5701 5702 5704 5707 5708 5710 5711 5712 5713 5712 5711 5709 5707 5705 5704 5703 5701 5700 5699 5697 5696 5696 5694 5693 5693
5654 5655 5657 5663 5664 5668 5669 5672 5675 5676 5678 5681 5683 5685 5685 5685 5685 5686 5689 5693 5695 5697 5698 5699 5700 5701 5704 5704 5704 5702 5701 5700 5698 5698 5697 5696 5693 5692 5691 5690 5688 5688 5687 5686
5647 5649 5651 5655 5656 5658 5660 5661 5663 5664 5666 5668 5671 5674 5675 5675 5675 5678 5681 5684 5685 5686 5688 5690 5691 5693 5695 5696 5695 5694 5693 5692 5692 5691 5690 5688 5686 5685 5684 5683 5682 5681 5680 5679
5640 5643 5644 5646 5647 5649 5650 5651 5653 5655 5656 5658 5660 5663 5664 5666 5667 5669 5672 5674 5675 5677 5679 5681 5682 5685 5687 5688 5688 5687 5686 5686 5685 5683 5682 5680 5678 5676 5676 5675 5674 5673 5673 5672
5630 5633 5635 5636 5639 5641 5642 5644 5645 5647 5647 5650 5651 5652 5654 5656 5657 5659 5663 5666 5667 5669 5671 5672 5674 5677 5679 5680 5680 5680 5679 5678 5677 5676 5675 5673 5671 5670 5669 5668 5667 5666 5666 5666
5627 5630 5631 5631 5633 5634 5636 5637 5638 5639 5639 5641 5643 5645 5646 5647 5648 5652 5654 5657 5658 5661 5663 5666 5667 5669 5670 5672 5672 5671 5671 5670 5669 5668 5667 5665 5664 5663 5661 5660 5660 5659 5659 5658
5621 5623 5625 5627 5628 5628 5630 5631 5631 5632 5632 5634 5635 5637 5640 5641 5642 5644 5646 5647 5649 5652 5656 5660 5660 5661 5662 5663 5664 5663 5662 5661 5660 5660 5659 5658 5657 5656 5655 5654 5653 5652 5651 5649
5616 5617 5619 5621 5623 5623 5624 5625 5625 5625 5626 5628 5629 5631 5632 5634 5636 5636 5638 5640 5643 5647 5650 5652 5653 5653 5655 5656 5655 5654 5654 5653 5652 5652 5651 5650 5649 5648 5647 5646 5645 5644 5644 5642
5611 5613 5615 5616 5618 5619 5619 5619 5619 5619 5620 5621 5623 5625 5627 5628 5630 5630 5631 5633 5638 5640 5641 5644 5645 5646 5648 5648 5647 5646 5646 5645 5644 5643 5643 5642 5641 5639 5638 5638 5638 5637 5636 5635
5607 5608 5610 5612 5613 5614 5615 5615 5615 5615 5615 5617 5619 5620 5621 5623 5624 5624 5626 5628 5632 5632 5634 5636 5638 5639 5640 5639 5639 5639 5638 5637 5637 5636 5635 5634 5632 5631 5631 5631 5630 5630 5629 5628
5604 5605 5607 5609 5610 5611 5611 5611 5611 5611 5612 5613 5614 5615 5616 5617 5618 5619 5621 5624 5625 5626 5627 5629 5630 5631 5631 5630 5630 5630 5630 5629 5628 5627 5626 5625 5624 5624 5623 5623 5622 5622 5621 5620
5602 5604 5605 5607 5608 5608 5608 5609 5609 5609 5609 5610 5611 5611 5611 5612 5613 5615 5617 5618 5619 5620 5621 5620 5620 5622 5622 5622 5622 5621 5621 5620 5620 5619 5618 5617 5616 5616 5616 5615 5615 5614 5613 5612
5601 5602 5603 5604 5605 5606 5606 5606 5606 5607 5607 5608 5609 5609 5609 5609 5609 5611 5611 5612 5612 5613 5613 5613 5613 5613 5614 5613 5613 5612 5611 5611 5611 5611 5610 5609 5608 5608 5608 5607 5607 5606 5605 5603
5599 5600 5601 5602 5604 5605 5605 5604 5604 5605 5605 5606 5606 5606 5606 5606 5606 5606 5605 5605 5606 5606 5606 5606 5606 5606 5606 5605 5604 5603 5603 5602 5602 5601 5602 5601 5601 5600 5599 5599 5598 5597 5596 5595
5597 5598 5600 5601 5602 5603 5603 5602 5602 5603 5603 5602 5602 5602 5601 5601 5601 5601 5602 5601 5600 5600 5599 5599 5599 5599 5598 5597 5596 5595 5594 5594 5594 5593 5593 5593 5592 5591 5590 5589 5588 5587 5586 5585